EDW84 LSZH-FACT

Flight info

Callsign EDW84
Flight time N/A
Altitude 34000
Route VEBIT T53 GERSA DCT SOSON DCT ODINA DCT PIDAD/N0488F350 DCT TALEP DCT VAREK DCT ERPIN DCT ETOIL DCT CIRTA UM2 CSO UM998 TOBUK/N0490F370 UM998 ENBUT DCT EBIMU UG727 BZ/N0489F390 DCT KSA UT943 IMVEX/N0489F380 UT943 UNLOK/N0486F390 UT943 VEDRY/N0483F400 UN185 OKLOK UQ23 DUMDO DCT ERDAS ERDAS1C
Aircraft A359/H-SABDE2E3FGHIJ1J2J3J4J5M1RWXYZ/LB1D1

Departure

Time 2026-05-04 20:39
Airport Zürich Airport (LSZH)

Arrival

Time N/A
Airport Cape Town International Airport (FACT)
Time Latitude Longitude Altitude Speed Heading
2026-05-04 20:13 47.46040 8.55624 1415 ft 0 kts
2026-05-04 20:29 47.46030 8.55622 1412 ft 4 kts
2026-05-04 20:29 47.46003 8.55619 1406 ft 4 kts
2026-05-04 20:29 47.45981 8.55615 1410 ft 4 kts 14°
2026-05-04 20:29 47.45962 8.55598 1415 ft 4 kts 73°
2026-05-04 20:30 47.45961 8.55559 1411 ft 4 kts 97°
2026-05-04 20:30 47.45964 8.55523 1413 ft 4 kts 96°
2026-05-04 20:30 47.45966 8.55484 1413 ft 3 kts 96°
2026-05-04 20:30 47.45967 8.55476 1412 ft 0 kts 96°
2026-05-04 20:33 47.45967 8.55485 1413 ft 4 kts 95°
2026-05-04 20:33 47.45961 8.55557 1411 ft 8 kts 96°
2026-05-04 20:34 47.45955 8.55633 1414 ft 7 kts 97°
2026-05-04 20:34 47.45949 8.55697 1415 ft 6 kts 97°
2026-05-04 20:34 47.45945 8.55749 1410 ft 5 kts 97°
2026-05-04 20:34 47.45943 8.55792 1410 ft 5 kts 94°
2026-05-04 20:35 47.45938 8.55873 1417 ft 10 kts 95°
2026-05-04 20:35 47.45931 8.55989 1418 ft 11 kts 96°
2026-05-04 20:35 47.45923 8.56100 1415 ft 12 kts 96°
2026-05-04 20:35 47.45913 8.56233 1418 ft 10 kts 96°
2026-05-04 20:36 47.45947 8.56302 1424 ft 10 kts 28°
2026-05-04 20:36 47.46001 8.56321 1422 ft 2 kts
2026-05-04 20:36 47.46008 8.56322 1422 ft 0 kts
2026-05-04 20:37 47.46044 8.56329 1421 ft 9 kts
2026-05-04 20:37 47.46097 8.56374 1425 ft 9 kts 41°
2026-05-04 20:38 47.46150 8.56408 1422 ft 9 kts 351°
2026-05-04 20:38 47.46199 8.56352 1421 ft 10 kts 317°
2026-05-04 20:38 47.46277 8.56245 1420 ft 30 kts 317°
2026-05-04 20:38 47.46604 8.55798 1412 ft 99 kts 317°
2026-05-04 20:39 47.47272 8.54886 1405 ft 161 kts 317°
2026-05-04 20:39 47.48170 8.53637 1841 ft 178 kts 314°
2026-05-04 20:39 47.49084 8.52475 2754 ft 172 kts 327°
2026-05-04 20:39 47.50151 8.51695 3503 ft 168 kts 335°
2026-05-04 20:40 47.51132 8.50740 3692 ft 175 kts 306°
2026-05-04 20:40 47.51459 8.49055 3899 ft 177 kts 262°
2026-05-04 20:40 47.50941 8.47429 4223 ft 176 kts 234°
2026-05-04 20:40 47.50369 8.45820 4527 ft 179 kts 247°
2026-05-04 20:41 47.49880 8.44066 4698 ft 191 kts 248°
2026-05-04 20:41 47.49366 8.42186 4864 ft 204 kts 248°
2026-05-04 20:41 47.48827 8.40264 5030 ft 217 kts 246°
2026-05-04 20:41 47.47991 8.38378 5335 ft 223 kts 223°
2026-05-04 20:42 47.46635 8.37217 5614 ft 233 kts 197°
2026-05-04 20:42 47.45009 8.36586 5816 ft 249 kts 192°
2026-05-04 20:42 47.43295 8.36033 6137 ft 261 kts 192°
2026-05-04 20:42 47.41510 8.35449 6685 ft 263 kts 192°
2026-05-04 20:43 47.39697 8.35016 7240 ft 266 kts 181°
2026-05-04 20:43 47.37868 8.35458 7793 ft 269 kts 160°
2026-05-04 20:43 47.36156 8.36622 8395 ft 273 kts 154°
2026-05-04 20:43 47.34462 8.37923 8975 ft 276 kts 154°
2026-05-04 20:44 47.32746 8.39243 9574 ft 280 kts 155°
2026-05-04 20:44 47.31006 8.40562 10157 ft 283 kts 155°
2026-05-04 20:44 47.29205 8.41912 10447 ft 297 kts 155°
2026-05-04 20:44 47.27309 8.43319 10679 ft 312 kts 155°
2026-05-04 20:45 47.25322 8.44793 10947 ft 327 kts 155°
2026-05-04 20:45 47.23247 8.46332 11204 ft 341 kts 155°
2026-05-04 20:45 47.21091 8.47939 11456 ft 354 kts 155°
2026-05-04 20:45 47.18878 8.49585 11705 ft 366 kts 155°
2026-05-04 20:46 47.16516 8.51084 12001 ft 373 kts 165°
2026-05-04 20:46 47.13964 8.51790 12498 ft 374 kts 175°
2026-05-04 20:46 47.11361 8.52183 13030 ft 377 kts 176°
2026-05-04 20:46 47.08739 8.52545 13581 ft 380 kts 176°
2026-05-04 20:47 47.06102 8.52912 14079 ft 383 kts 176°
2026-05-04 20:47 47.03436 8.53289 14438 ft 388 kts 176°
2026-05-04 20:47 47.00721 8.53679 14824 ft 391 kts 176°
2026-05-04 20:47 46.98015 8.54068 15390 ft 392 kts 176°
2026-05-04 20:48 46.95293 8.54458 15868 ft 395 kts 176°
2026-05-04 20:48 46.92548 8.54851 16310 ft 398 kts 176°
2026-05-04 20:48 46.89788 8.55246 16812 ft 400 kts 176°
2026-05-04 20:48 46.87039 8.55641 17289 ft 402 kts 177°
2026-05-04 20:49 46.84239 8.56042 17631 ft 406 kts 177°
2026-05-04 20:49 46.81416 8.56451 18076 ft 409 kts 177°
2026-05-04 20:49 46.78573 8.56861 18505 ft 411 kts 177°
2026-05-04 20:49 46.75731 8.57274 19022 ft 409 kts 177°
2026-05-04 20:50 46.72898 8.57683 19548 ft 409 kts 177°
2026-05-04 20:50 46.70051 8.58088 20005 ft 413 kts 177°
2026-05-04 20:50 46.67191 8.58506 20558 ft 413 kts 176°
2026-05-04 20:50 46.64319 8.58915 21005 ft 416 kts 176°
2026-05-04 20:51 46.61419 8.59321 21388 ft 420 kts 176°
2026-05-04 20:51 46.58507 8.59733 21883 ft 422 kts 176°
2026-05-04 20:51 46.55579 8.60147 22350 ft 424 kts 176°
2026-05-04 20:51 46.52637 8.60561 22825 ft 426 kts 176°
2026-05-04 20:52 46.49674 8.60977 23197 ft 429 kts 176°
2026-05-04 20:52 46.46701 8.61395 23652 ft 430 kts 176°
2026-05-04 20:52 46.43717 8.61813 24040 ft 432 kts 176°